Location: Kerouman
(48.4430°N, 4.5491°W)
Time: 23:31:30
(UTC+00:00)

Daily predictions for brighter satellites

Satellite Brightness Start Highest point End
(mag) Time Altitude Azimuth Time Altitude Azimuth Time Altitude Azimuth
Meteor 1-27 Rocket 4.0 18:19:19 10° N 18:24:37 44° ENE 18:29:51 10° SE
H-2A R/B 2.3 18:22:04 10° SE 18:27:18 52° ENE 18:32:36 10° N
Cosmos 2228 Rocket 3.3 18:23:22 10° N 18:27:49 51° ENE 18:32:12 10° SSE
ARGOS 3.6 18:23:14 10° SE 18:28:13 39° ENE 18:33:14 10° N
Cosmos 1862 3.3 18:24:19 10° S 18:28:17 66° E 18:32:19 10° NNE
Aureole 1 Rocket 4.2 18:21:33 10° NNW 18:29:19 83° ENE 18:35:21 10° SSE
Cosmos 1745 Rocket 4.2 18:23:57 10° SSW 18:30:05 78° W 18:36:17 10° N
COSMOS 2455 3.0 18:24:18 10° NNW 18:30:14 54° NE 18:36:07 10° SE
Cosmos 1271 Rocket 4.1 18:27:37 10° NNE 18:30:17 18° ENE 18:32:55 10° ESE
Cosmos 2278 4.4 18:25:42 10° SSE 18:30:44 34° ESE 18:35:48 10° NE
FALCON 9 DEB 4.3 18:28:05 10° SSW 18:30:45 25° SE 18:33:26 10° E
Cosmos 2297 Rocket 3.6 18:26:55 10° NW 18:32:14 43° WSW 18:37:32 10° S
HJ-1C 4.3 18:32:45 10° SE 18:35:40 29° ENE 18:38:36 10° N
CZ-2D R/B 3.5 18:31:56 10° S 18:35:42 75° WSW 18:39:32 10° NNW
Cosmos 1812 2.8 18:32:43 10° NNW 18:36:35 81° W 18:40:24 10° S
FALCON 9 DEB 3.8 18:33:41 10° W 18:37:02 49° NNW 18:40:23 10° ENE
CZ-2C R/B 3.6 18:33:14 10° NE 18:37:55 27° E 18:42:30 10° SSE
Cosmos 1689 Rocket 3.1 18:35:55 10° NE 18:38:20 24° E 18:40:45 10° SSE
ATLAS 5 CENTAUR R/B 3.7 18:22:32 10° SW 18:41:28 85° SE 18:46:02 10° NE
Cosmos 2084 3.9 18:37:42 10° SSW 18:41:40 41° ESE 18:45:44 10° NE
Cosmos 1709 Rocket 4.0 18:37:19 10° S 18:43:26 80° E 18:49:41 10° N
BREEZE-M DEB (TANK) 1.5 18:41:33 10° WSW 18:43:41 61° SSE 18:46:16 13° ENE
CZ-2C R/B 3.7 18:38:13 10° S 18:44:00 71° WSW 18:49:42 10° NNW
Cosmos 1844 Rocket 4.5 18:40:58 10° N 18:44:02 15° NE 18:47:04 10° ENE
NOSS 2-1 (C) 4.2 18:40:37 10° NW 18:45:20 66° NE 18:51:59 10° SE
Cosmos 2181 Rocket 4.1 18:38:56 10° N 18:45:24 67° ENE 18:51:47 10° SSE
Gbstr 26 Del rocket 4.2 18:41:44 10° SSW 18:45:33 30° SE 18:49:30 12° E
Cosmos 1331 Rocket 4.4 18:41:10 10° S 18:46:04 40° ESE 18:50:58 10° NE
Cosmos 1242 Rocket 3.2 18:44:41 10° NNW 18:48:11 58° W 18:51:41 10° S
TSX-5 4.1 18:43:54 10° NNW 18:48:35 52° NE 18:52:15 10° SE
CSL-04 Rocket 4.0 18:43:31 10° SE 18:48:50 48° ENE 18:54:08 10° N
Cosmos 292 Rocket 3.7 18:44:30 10° S 18:49:11 63° ESE 18:53:54 10° NNE
NOSS 2-1 (D) 4.2 18:46:41 10° NW 18:51:28 72° NE 18:58:14 10° SE
FALCON 9 DEB 3.8 18:52:12 10° SSW 18:55:08 34° SE 18:56:59 18° E
Cosmos 1818 4.5 18:50:38 10° NW 18:55:57 52° WSW 19:01:13 10° SSE
COSMO-SKYMED 1 3.1 18:51:53 10° N 18:56:12 62° WNW 19:00:28 10° SSW
YAOGAN 1 2.5 18:53:00 10° SSE 18:57:19 86° ENE 19:01:41 10° NNW
Helios 1A Rocket 3.0 18:53:52 10° SSE 18:57:51 55° ENE 19:01:50 10° N
Okean-O 2.6 18:54:15 10° SSE 18:58:41 86° ENE 19:03:09 10° NNW
Cosmos 1500 Rocket 3.8 18:55:14 10° SSW 18:59:34 71° W 19:03:54 10° N
SL-4 R/B 1.5 18:57:24 10° WSW 19:00:59 78° SSE 19:03:19 19° ENE
Cosmos 220 Rocket 4.1 18:56:55 10° S 19:01:00 52° ESE 19:05:07 10° NNE
FALCON 9 DEB 3.3 19:00:28 10° SW 19:03:31 47° SSE 19:05:10 23° E
APEX 3.9 19:02:51 10° N 19:05:19 21° NE 19:05:43 21° ENE
Cosmos 1980 Rocket 2.2 19:00:16 10° SSW 19:05:51 65° ESE 19:11:30 10° NNE
Lacrosse 5 rocket 2.3 19:01:47 10° WNW 19:06:06 50° SW 19:10:11 10° SSE
Sich 1 3.0 19:04:29 10° S 19:08:45 60° E 19:13:07 10° NNE
CZ-4B R/B 3.0 19:07:12 10° N 19:09:59 33° WNW 19:12:46 10° SW
Cosmos 44 4.2 19:07:47 10° NW 19:13:08 57° WSW 19:18:24 10° SSE
Cosmos 1302 Rocket 4.5 19:09:26 10° SSE 19:14:08 36° ESE 19:18:52 10° NE
Cosmos 1452 Rocket 4.2 19:09:23 10° SW 19:14:33 56° WNW 19:19:44 10° NNE
Cosmos 2227 4.3 19:09:02 10° NNW 19:14:46 62° ENE 19:20:28 10° SE
Cosmos 2322 Rocket 3.4 19:11:53 10° SE 19:15:03 19° ESE 19:15:03 19° ESE
Cosmos 968 Rocket 4.0 19:11:13 10° N 19:16:07 38° ENE 19:19:11 20° ESE
Cosmos 1437 2.3 19:15:31 10° N 19:18:26 70° ENE 19:21:06 11° SSE
Cosmos 1707 Rocket 3.5 19:14:31 10° N 19:18:57 69° ENE 19:23:18 10° SSE
Cosmos 1867 3.5 19:17:17 10° SSW 19:22:40 68° ESE 19:28:07 10° NE
ERS-2 2.2 19:19:53 10° NNE 19:23:33 79° WNW 19:27:12 10° SSW
Cosmos 724 4.3 19:18:01 10° SSW 19:24:05 85° SE 19:30:19 10° NE
Cosmos 1633 Rocket 3.3 19:20:42 10° SSE 19:24:54 45° E 19:29:09 10° NNE
Meteor 1-20 Rocket 4.1 19:23:27 10° S 19:28:46 57° E 19:34:08 10° NNE
Cosmos 1697 Rocket 3.6 19:24:47 10° SW 19:30:17 50° NW 19:35:48 10° NNE
Cosmos 1110 Rocket 4.1 19:26:14 10° SSW 19:31:34 81° WNW 19:36:56 10° NNE
SAR-Lupe-4 3.9 19:28:56 10° N 19:32:30 67° WNW 19:36:03 10° SSW
SL-16 R/B 2.8 19:29:53 10° SSE 19:34:54 34° ESE 19:37:14 24° ENE
USA 234 3.2 19:29:24 15° ENE 19:35:00 82° SE 19:41:34 10° SW
Meteor 1-19 Rocket 4.4 19:31:05 10° N 19:37:03 58° ENE 19:42:35 11° SSE
USA 305 2.8 19:33:21 10° SW 19:37:38 78° SSE 19:39:14 37° ENE
CZ-4 R/B 3.6 19:39:22 10° SSW 19:42:36 25° W 19:45:53 10° NW
MOS 1 4.5 19:39:29 24° SE 19:42:43 50° ENE 19:48:11 10° N
Resurs 01 Rocket 3.3 19:44:38 19° NE 19:44:38 19° NE 19:46:40 10° NNE
SeaSat 1 3.1 19:39:12 10° NNE 19:44:03 57° NW 19:48:53 10° SW
USA 307 2.8 19:41:11 10° SW 19:45:28 82° SSE 19:46:43 45° ENE
Ariane Rocket 3.2 19:43:24 31° SE 19:45:28 50° ENE 19:50:25 10° N
DMSP B5D2-2 4.0 19:40:32 10° NNE 19:45:46 63° ESE 19:50:56 10° S
FALCON 9 DEB 2.8 19:44:30 10° WSW 19:47:39 87° SW 19:47:39 87° SW
Nadezhda 3 Rocket 3.9 19:41:25 10° N 19:47:47 72° E 19:54:08 10° SSE
Cosmos 2154 Rocket 3.9 19:42:53 10° S 19:49:02 65° E 19:55:11 10° NNE
IRS-1A Rocket 4.3 19:47:27 24° SE 19:50:47 60° ENE 19:56:19 10° N
Cosmos 2263 Rocket 2.3 19:45:28 10° NNW 19:51:02 73° WSW 19:55:56 13° SSE
USA 306 2.8 19:47:31 10° WSW 19:51:49 89° N 19:52:52 51° ENE
USA 308 2.8 19:51:27 10° WSW 19:55:44 88° NNW 19:56:36 56° ENE
Cosmos 1515 3.5 19:52:50 10° N 19:56:42 84° ENE 19:57:16 63° SSE
Cosmos 1470 Rocket 3.6 19:52:35 10° S 19:56:58 56° E 20:01:22 10° NNE
Cosmos 2074 Rocket 4.2 19:51:45 10° SSW 19:58:01 75° W 20:04:19 10° N
Meteor 1-14 Rocket 4.3 19:54:05 10° SSE 19:59:29 51° E 20:04:51 10° NNE
Cosmos 1610 Rocket 4.3 19:53:58 10° S 20:00:06 78° E 20:06:22 10° NNE
OBJECT-B 2.6 20:05:18 24° N 20:05:18 24° N 20:06:44 10° N
SJ-6B 2.8 20:04:15 57° SSE 20:05:03 90° WSW 20:09:12 10° NNW
FALCON 9 DEB 3.9 20:03:14 10° WSW 20:05:41 46° W 20:05:41 46° W
Cosmos 1271 Rocket 4.1 20:02:56 10° NNW 20:06:25 37° W 20:09:53 10° SSW
H-2A R/B 4.3 20:02:30 10° SSW 20:06:59 26° W 20:11:33 10° NW
Meteor 2-4 Rocket 3.7 20:04:51 10° N 20:10:34 63° ENE 20:11:52 50° SE
Cosmos 2184 Rocket 4.4 20:04:41 10° SSW 20:10:46 63° WNW 20:16:56 10° N
GP-B 3.0 20:10:27 39° S 20:12:06 87° W 20:16:35 10° N
Okean 1 3.6 20:09:43 10° NNW 20:13:42 65° W 20:14:32 50° SSW
Cosmos 1602 4.1 20:10:07 10° SSW 20:13:57 63° WNW 20:17:51 10° N
Cosmos 1461 3.4 20:10:01 10° SSW 20:13:50 53° S 20:13:50 53° S
BREEZE-M DEB (TANK) 4.5 19:54:26 10° W 20:15:16 77° S 20:17:22 47° ESE
Cosmos 1295 Rocket 4.4 20:09:09 10° S 20:15:27 84° E 20:21:43 10° N
Meteor 1-18 Rocket 4.4 20:09:55 10° NNW 20:15:52 78° W 20:20:39 16° S
Cosmos 1932 4.4 20:09:29 10° SSW 20:15:54 67° ESE 20:18:17 40° NE
COSMOS 2455 4.4 20:10:38 10° NW 20:15:56 33° WSW 20:21:11 10° S
Cosmos 1844 4.3 20:12:41 10° NNW 20:17:59 41° NE 20:17:59 41° NE
CZ-2C R/B 3.5 20:13:06 10° N 20:18:29 51° WNW 20:23:44 10° SW
Cosmos 44 Rocket 3.3 20:14:35 10° NW 20:19:50 69° NE 20:19:59 69° ENE
Cosmos 1862 Rocket 4.3 20:15:46 10° NNW 20:20:10 54° W 20:22:50 22° SSW
Resurs 1-3 4.1 20:27:56 53° N 20:27:56 53° N 20:31:19 10° NNW
Cosmos 2278 Rocket 4.1 20:23:32 10° N 20:26:30 17° NNE 20:26:30 17° NNE
Cosmos 1844 Rocket 2.9 20:23:44 10° NNW 20:28:45 54° NE 20:28:45 54° NE
Cosmos 1486 Rocket 4.2 20:24:19 10° NNW 20:29:33 68° WSW 20:30:48 50° SSW
Meteor 2-12 Rocket 4.4 20:24:43 10° SSW 20:30:46 79° W 20:36:54 10° N
Gbstr 26 Del rocket 3.3 20:27:19 10° WSW 20:32:02 85° NNW 20:32:03 85° NNW
SPOT 3 Rocket 3.9 20:34:12 54° NNE 20:34:12 54° NNE 20:38:25 10° N
Cosmos 2341 Rocket 3.8 20:31:11 37° S 20:33:51 75° E 20:40:09 10° NNE
Cosmos 962 Rocket 4.3 20:29:19 10° S 20:35:30 86° E 20:41:48 10° N
SL-8 Rocket 4.4 20:37:29 45° NE 20:37:29 45° NE 20:41:53 10° NNE
SL-4 R/B 3.9 20:37:17 10° W 20:38:54 24° WNW 20:38:54 24° WNW
Cosmos 1339 Rocket 4.3 20:41:30 10° N 20:47:40 86° E 20:47:41 86° E
Cosmos 1980 Rocket 4.1 20:45:32 10° WSW 20:50:20 27° NW 20:55:11 10° NNE
Cosmos 1354 Rocket 4.4 20:45:12 10° NNW 20:49:30 60° NNW 20:49:30 60° NNW
Cosmos 2322 Rocket 3.1 20:53:33 10° SSW 20:57:03 40° SW 20:57:03 40° SW
MOS 1-B Rocket 4.4 21:05:20 10° NNE 21:12:36 85° ESE 21:13:10 79° S
USA 234 3.8 21:16:44 46° NNE 21:17:49 51° NNW 21:24:05 10° W
SL-16 R/B 3.1 21:13:26 10° SW 21:18:52 46° NW 21:19:18 45° NW
Resurs 01 Rocket 3.9 21:22:11 21° NNW 21:22:11 21° NNW 21:23:47 10° NNW
Cosmos 2278 Rocket 4.4 22:06:44 10° NNW 22:08:21 20° NNW 22:08:21 20° NNW
